Flight Track Log - Related Links

Times and Time Zones

All times are in EDT time to prevent confusion due to time zone crossing. See the SKW5197 flight status page for this flight to view local times or setup timezone preferences in your user account.

Time Position Orientation Groundspeed Altitude Reporting Facility
EDT Latitude Longitude Course Direction KTS MPH feet Rate Location/Type
10:39AM 33.9339 -118.4450 232° Southwest 169 194 1,600  Level Los Angeles Center
10:40AM 33.8833 -118.5233 232° Southwest 253 291 4,300 2,226 Climbing Los Angeles Center
10:41AM 33.8189 -118.5619 206° Southwest 283 326 6,200 2,274 Climbing Los Angeles Center
10:42AM 33.7433 -118.5389 166° South 285 328 9,000 2,419 Climbing Los Angeles Center
10:43AM 33.6858 -118.4822 141° Southeast 292 336 11,200 2,274 Climbing Los Angeles Center
10:44AM 33.6506 -118.3658 110° East 311 358 13,700 2,098 Climbing Los Angeles Center
10:45AM 33.6436 -118.2792 95° East 329 379 15,500 1,951 Climbing Los Angeles Center
10:46AM 33.6444 -118.1478 90° East 334 384 17,700 1,887 Climbing Los Angeles Center
10:47AM 33.6447 -118.0342 90° East 341 392 19,400 1,597 Climbing Los Angeles Center
10:48AM 33.6444 -117.9133 90° East 357 411 21,000 1,742 Climbing Los Angeles Center
10:49AM 33.6433 -117.7689 90° East 363 418 23,000 1,680 Climbing Los Angeles Center
10:50AM 33.6431 -117.6431 90° East 376 433 24,500 1,306 Climbing Los Angeles Center
10:51AM 33.6419 -117.5142 91° East 386 444 25,700 1,022 Climbing Los Angeles Center
10:53AM 33.6414 -117.3811 90° East 399 459 26,800 1,147 Climbing Los Angeles Center
10:54AM 33.6400 -117.2172 91° East 410 472 28,300 1,355 Climbing Los Angeles Center
10:55AM 33.6386 -117.0486 91° East 424 488 29,600 1,161 Climbing Los Angeles Center
10:56AM 33.6383 -116.9058 90° East 430 495 30,700 1,000 Climbing Los Angeles Center
10:58AM 33.6350 -116.6008 91° East 441 507 32,700 935 Climbing Los Angeles Center
10:59AM 33.6617 -116.4547 78° East 456 525 33,600 871 Climbing Los Angeles Center
11:00AM 33.6986 -116.3114 73° East 449 517 34,500 677 Climbing Los Angeles Center
11:01AM 33.7353 -116.1672 73° East 452 520 35,000 221 Climbing Los Angeles Center
11:02AM 33.7711 -116.0228 73° East 451 519 35,000 263 Level Los Angeles Center
11:03AM 33.8150 -115.8489 73° East 453 521 35,600 816 Climbing Los Angeles Center
11:04AM 33.8589 -115.6744 73° East 454 522 36,700 919 Climbing Los Angeles Center
11:05AM 33.8939 -115.5292 74° East 452 520 37,500 823 Climbing Los Angeles Center
11:06AM 33.9300 -115.3847 73° East 450 518 38,400 726 Climbing Los Angeles Center
11:07AM 33.9639 -115.2444 74° East 442 509 39,000 290 Climbing Los Angeles Center
11:08AM 33.9994 -115.1008 73° East 446 513 39,000  Level Los Angeles Center
11:09AM 34.0336 -114.9572 74° East 447 514 39,000  Level Los Angeles Center
11:10AM 34.0767 -114.7844 73° East 449 517 39,000  Level Los Angeles Center
11:11AM 34.1047 -114.6372 77° East 448 516 39,000  Level Los Angeles Center
11:12AM 34.1161 -114.4889 85° East 445 512 39,000  Level Los Angeles Center
11:13AM 34.1272 -114.3406 85° East 444 511 39,000  Level Los Angeles Center
11:14AM 34.1392 -114.1931 84° East 443 510 39,000  Level Los Angeles Center
11:15AM 34.1467 -114.1031 84° East 445 512 39,000  Level Albuquerque Center
11:16AM 34.1589 -113.9550 84° East 443 510 39,000  Level Albuquerque Center
11:17AM 34.1697 -113.8067 85° East 444 511 39,000  Level Albuquerque Center
11:18AM 34.1794 -113.6583 85° East 443 510 39,000  Level Albuquerque Center
11:19AM 34.1931 -113.4861 84° East 444 511 39,000  Level Albuquerque Center
11:20AM 34.2025 -113.3381 86° East 443 510 39,000  Level Albuquerque Center
11:21AM 34.2131 -113.1894 85° East 445 512 39,000  Level Albuquerque Center
11:22AM 34.2222 -113.0403 86° East 446 513 39,000  Level Albuquerque Center
11:23AM 34.2331 -112.8919 85° East 444 511 39,000  Level Albuquerque Center
11:24AM 34.2428 -112.7439 85° East 443 510 39,000  Level Albuquerque Center
11:25AM 34.2533 -112.5656 86° East 444 511 39,000  Level Albuquerque Center
11:26AM 34.2636 -112.4169 85° East 443 510 39,000  Level Albuquerque Center
11:27AM 34.2728 -112.2678 86° East 444 511 39,000  Level Albuquerque Center
11:29AM 34.2808 -112.1039 87° East  Level FlightAware Approximate
11:29AM 34.2914 -111.9672 87° East 446 513 39,000  Level Albuquerque Center
11:30AM 34.3008 -111.8153 86° East 448 516 39,000  Level Albuquerque Center
11:31AM 34.3089 -111.6636 86° East 448 516 39,000  Level Albuquerque Center
11:33AM 34.3169 -111.5131 86° East 446 513 39,000  Level Albuquerque Center
11:34AM 34.3269 -111.3356 86° East 442 509 39,000  Level Albuquerque Center
11:35AM 34.3339 -111.1894 87° East 437 503 39,000  Level Albuquerque Center
11:36AM 34.3414 -111.0428 86° East 437 503 39,000  Level Albuquerque Center
11:37AM 34.3489 -110.8961 86° East 437 503 39,000  Level Albuquerque Center
11:38AM 34.3569 -110.7478 86° East 440 506 39,000 -387 Level Albuquerque Center
11:39AM 34.3639 -110.5969 87° East 446 513 38,200 -1,016 Descending Albuquerque Center
11:40AM 34.3728 -110.4161 87° East 450 518 36,900 -1,065 Descending Albuquerque Center
11:41AM 34.3786 -110.2719 87° East 444 511 36,000 -968 Descending Albuquerque Center
11:42AM 34.3861 -110.1067 87° East 441 507 34,900 -1,016 Descending Albuquerque Center
11:43AM 34.3925 -109.9619 87° East 448 516 33,900 -968 Descending Albuquerque Center
11:44AM 34.3986 -109.8172 87° East 450 518 32,900 -1,016 Descending Albuquerque Center
11:45AM 34.4042 -109.6481 88° East 451 519 31,800 -919 Descending Albuquerque Center
11:46AM 34.4111 -109.5017 87° East 454 522 31,000 -387 Descending Albuquerque Center
11:47AM 34.4175 -109.3317 87° East 454 522 31,000 -97 Level Albuquerque Center
11:48AM 34.4231 -109.1911 87° East 446 513 30,800 -629 Descending Albuquerque Center
11:49AM 34.4406 -109.0214 83° East 451 519 29,700 -1,016 Descending Albuquerque Center
11:50AM 34.4586 -108.8775 81° East 454 522 28,700 -1,065 Descending Albuquerque Center
11:51AM 34.4786 -108.7167 81° East 444 511 27,500 -1,016 Descending Albuquerque Center
11:52AM 34.4950 -108.5850 81° East 430 495 26,600 -919 Descending Albuquerque Center
11:53AM 34.5131 -108.4589 80° East 417 480 25,600 -1,065 Descending Albuquerque Center
11:54AM 34.5403 -108.2975 78° East 409 471 24,400 -1,065 Descending Albuquerque Center
11:55AM 34.5625 -108.1656 78° East 403 464 23,400 -968 Descending Albuquerque Center
11:56AM 34.5853 -108.0353 78° East 398 458 22,400 -968 Descending Albuquerque Center
11:57AM 34.6058 -107.9069 79° East 393 452 21,400 -677 Descending Albuquerque Center
11:58AM 34.6311 -107.7836 76° East 382 440 21,000 -823 Descending Albuquerque Center
11:59AM 34.6814 -107.6761 60° Northeast 370 426 19,700 -1,355 Descending Albuquerque Center
12:00PM 34.7336 -107.5514 63° Northeast 351 404 18,200 -1,210 Descending Albuquerque Center
12:01PM 34.7761 -107.4528 62° Northeast 335 386 17,200 -1,163 Descending Albuquerque Center
12:02PM 34.7994 -107.3917 65° Northeast 315 362 16,300 -1,423 Descending Albuquerque Center
12:03PM 34.8392 -107.2992 62° Northeast 310 357 14,900 -1,377 Descending Albuquerque Center
12:04PM 34.8789 -107.2064 62° Northeast 306 352 13,500 -1,512 Descending Albuquerque Center
12:05PM 34.9225 -107.0997 63° Northeast 307 353 11,700 -1,559 Descending Albuquerque Center
12:06PM 34.9619 -107.0069 63° Northeast 307 353 10,200 -1,339 Descending Albuquerque Center
12:07PM 35.0019 -106.9167 62° Northeast 300 345 9,000 -939 Descending Albuquerque Center
12:08PM 35.0325 -106.8467 62° Northeast 243 280 8,400 -809 Descending Albuquerque Center
12:09PM 35.0444 -106.8164 64° Northeast 261 300 7,800 -688 Descending Albuquerque Center
12:10PM 35.0453 -106.7392 89° East 240 276 7,300 -839 Descending Albuquerque Center
12:10PM 35.0442 -106.6933 92° East 215 247 6,500 -1,161 Descending Albuquerque Center
12:11PM 35.0444 -106.6636 89° East 204 235 6,100 -787 Descending Albuquerque Center
12:11PM 35.0442 -106.6439 91° East 131 151 5,700 -774 Descending Albuquerque Center
12:12PM 35.0444 -106.6161 89° East 162 186 5,300 -750 Descending Albuquerque Center
12:14PM 35.0402 -106.6092 39° Northeast  Level Estimated
12:21PM 35.0402 -106.6092 39° Northeast  Level Estimated
12:22PM 35.0402 -106.6092 39° Northeast  Level Estimated
12:23PM 35.0402 -106.6092 39° Northeast  Level Estimated
12:24PM 35.0402 -106.6092 39° Northeast  Level Estimated
12:25PM 35.0402 -106.6092 39° Northeast  Level Estimated
12:26PM 35.0402 -106.6092 39° Northeast  Level Estimated
12:27PM 35.0402 -106.6092 39° Northeast  Level Estimated
12:28PM 35.0402 -106.6092 39° Northeast  Level Estimated
12:29PM 35.0402 -106.6092 39° Northeast  Level Estimated
12:30PM 35.0402 -106.6092 39° Northeast  Level Estimated

Login

Don't have an account? Register now (free) for customized features, flight alerts, and more!